Lid_Strength_Index
4 6 7 6 6 7 8 7 8 6 5 6 6 6 5 4 5 5 5 5 4 4 2 2 1 1 1 0 0 0 0 -0 -0 0 1 1 1 -0 -0 -1 -2 -2 -2 -2
6 7 5 5 5 7 7 8 8 6 6 6 6 6 5 4 5 5 5 5 4 4 3 2 2 1 1 1 1 1 0 0 -0 0 -0 -0 -0 -0 -1 -1 -2 -2 -2 -2
7 6 5 6 6 7 7 7 7 7 6 5 6 7 6 5 5 4 4 4 4 4 4 3 2 2 1 1 1 1 0 0 -0 -1 -0 -0 -0 -0 0 -0 -0 -1 -2 -1
6 5 6 6 7 6 8 6 6 7 7 9 6 10 7 6 5 5 4 4 4 4 3 3 3 2 2 1 1 0 0 0 -0 -1 -0 0 1 2 1 0 -0 -1 -2 -1
7 6 6 7 7 6 7 6 6 6 7 8 8 9 8 6 6 5 5 4 4 3 3 3 3 2 1 1 1 1 0 1 -0 -0 -0 1 1 0 -0 0 -0 -1 -1 -2
6 4 5 6 5 5 5 6 6 6 7 10 8 9 9 7 6 5 5 4 4 3 3 3 2 2 1 1 1 1 1 1 0 0 0 0 1 1 1 0 1 1 -0 -0
6 6 5 5 6 5 6 7 11 11 11 11 8 9 8 6 5 5 5 4 4 3 3 3 3 2 2 2 1 1 1 1 0 0 0 0 0 0 0 0 1 1 1 0
9 10 6 5 6 7 7 7 10 14 12 10 8 10 8 5 4 4 4 4 4 3 3 3 3 2 2 2 1 1 1 1 1 1 0 0 -0 0 0 0 0 0 0 -0
9 9 5 5 5 5 7 8 6 9 8 10 9 8 6 5 5 4 4 4 4 4 3 3 2 2 2 2 1 1 1 1 1 1 1 0 0 0 0 -0 -0 0 -1 -0
7 10 6 6 5 5 6 6 9 8 13 14 10 10 8 7 6 5 5 4 4 3 3 3 2 2 2 1 1 1 1 1 1 1 0 1 0 0 -0 -0 -0 -0 -1 -1
6 8 8 6 7 7 7 8 7 7 9 12 13 10 6 6 5 5 5 4 4 4 3 3 2 2 1 1 1 1 1 1 1 1 0 0 0 0 -0 0 -0 -0 -1 -1
6 7 10 8 6 5 6 7 7 10 11 9 10 10 5 5 5 5 5 4 4 3 3 3 2 2 2 2 1 1 1 1 1 0 0 1 0 0 0 0 0 -0 -0 -1
6 8 10 9 7 6 7 7 7 7 8 10 12 10 5 5 5 5 5 5 4 4 3 3 3 2 2 2 2 1 1 1 1 0 1 1 1 1 1 0 -0 -0 -0 -0
5 7 8 10 8 7 9 8 7 8 10 10 9 8 6 6 7 5 5 5 4 4 4 3 3 3 2 2 1 1 1 1 1 1 1 1 1 1 0 0 -0 -0 -0 -0
6 8 7 7 8 8 8 8 8 8 7 9 8 8 7 7 6 6 5 5 5 5 4 4 3 3 2 2 2 1 1 1 1 1 1 1 1 0 0 0 -0 -0 -0 -0
6 9 8 9 8 8 9 8 8 7 7 7 7 7 5 5 5 6 6 5 5 5 4 4 3 3 3 2 2 2 1 1 1 1 1 1 0 0 0 0 0 0 0 -0
7 8 9 10 8 8 10 8 8 7 7 8 10 8 6 7 6 6 6 5 5 5 4 4 3 3 2 2 2 2 1 1 1 1 1 1 1 1 1 1 0 1 1 0
7 8 8 10 9 13 8 6 7 8 8 7 8 7 6 6 5 5 4 4 4 4 3 3 3 2 2 1 2 1 1 1 1 1 1 1 1 1 1 1 1 1 1 1
6 7 9 11 10 8 7 7 8 9 9 7 7 7 6 5 5 5 4 3 3 3 3 2 2 2 1 1 1 1 2 1 2 2 2 1 1 1 1 1 1 1 1 1
7 6 8 9 12 13 9 7 5 6 10 6 6 6 6 5 8 7 3 3 3 2 2 2 1 1 1 1 1 2 2 2 2 2 1 1 1 1 1 1 1 1 1 1
8 8 10 10 10 8 7 5 4 11 10 5 5 5 5 6 5 4 3 3 2 2 2 1 1 2 1 1 1 2 2 2 2 1 1 1 1 1 1 1 1 1 1 1
10 10 9 9 11 12 5 5 9 6 4 4 4 4 5 4 4 3 3 3 2 2 2 1 2 1 1 1 1 2 2 1 1 1 1 1 1 1 1 1 0 1 1 1
9 7 9 8 8 5 4 5 4 4 4 4 4 4 4 4 4 3 3 3 3 2 2 1 2 2 1 1 1 2 1 1 1 1 2 1 1 1 1 1 1 2 2 2
6 5 8 8 7 6 5 4 3 3 4 3 3 3 3 4 4 4 3 3 3 2 2 2 2 2 2 1 1 1 0 0 1 1 1 2 2 2 1 1 1 2 2 3
6 6 7 8 6 5 4 4 4 3 3 3 3 3 3 4 4 3 4 3 3 3 2 2 2 2 2 1 1 0 0 0 1 1 1 2 2 2 2 2 1 1 1 2
5 6 8 9 5 6 5 4 3 4 4 3 4 4 3 3 4 4 4 3 3 3 2 2 2 2 2 1 1 0 0 0 1 2 2 2 2 4 4 4 3 10 9 11